Home > Weather > Asker > Past weeks

Flag for Norway Past Weather in Asker, Norway — Yesterday and Last 2 Weeks

Now
54 °F

Sprinkles. Fog.


Feels Like: 50 °F
Forecast: 57 / 70 °F
Wind: 10 mph from Northwest

Location: Statfjord B

Current Time: Aug 25, 2016 at 1:32:49 AM

Latest Report: Aug 25, 2016 at 12:50 AM


Visibility: 3 mi

Pressure: 30.15 "Hg

Humidity: 100%

Dew Point: 54 °F

Location of AskerLocation

Past Weather in Asker — Graph

°F

Asker Temperature Yesterday

Maximum temperature yesterday: 59 °F (at 1:20 PM)
Minimum temperature yesterday: 54 °F (at 11:20 PM)
Average temperature yesterday: 57 °F

High & Low Weather Summary for the Past Weeks

 TemperatureHumidityPressure
High63 °F (Aug 17, 10:20 AM)100% (Aug 12, 2:20 AM)30.30 "Hg (Aug 12, 2:20 AM)
Low48 °F (Aug 10, 1:50 AM)54% (Aug 10, 1:50 PM)29.50 "Hg (Aug 12, 12:50 PM)
Average55 °F88%29.99 "Hg
* Reported Aug 10 12:20 AM — Aug 25 12:20 AM, Asker, Weather by CustomWeather, © 2016

Note: Actual official high and low records may vary slightly from our data, if they occured in-between our weather recording intervals... More about our weather records

Advertising

Asker Weather History for the Previous 24 Hours

Scroll right to see more
 ConditionsComfort  
Time TempWeatherWind HumidityBarometerVisibility
12:20 AM
Thu, Aug 25
54 °FDrizzle. Low clouds.6 mph94%30.15 "Hg5 mi
11:50 PM
Wed, Aug 24
54 °FLow clouds.10 mph94%30.15 "HgN/A
11:20 PM54 °FLow clouds.7 mph94%30.15 "HgN/A
10:50 PM55 °FLow clouds.9 mph94%30.15 "HgN/A
10:20 PM55 °FOvercast.8 mph94%30.15 "HgN/A
9:50 PM55 °FOvercast.12 mph94%30.12 "HgN/A
9:20 PM55 °FOvercast.10 mph88%30.12 "HgN/A
8:50 PM55 °FLow clouds.12 mph94%30.12 "HgN/A
8:20 PM55 °FLow clouds.13 mph94%30.12 "HgN/A
7:50 PM55 °FLow clouds.13 mph94%30.09 "HgN/A
7:20 PM55 °FLow clouds.12 mph94%30.09 "HgN/A
6:50 PM55 °FLow clouds.10 mph94%30.09 "HgN/A
6:20 PM55 °FPartly sunny.12 mph94%30.09 "HgN/A
5:50 PM57 °FLow clouds.13 mph88%30.09 "HgN/A
5:20 PM57 °FLow clouds.13 mph94%30.09 "HgN/A
4:50 PM57 °FPartly sunny.13 mph94%30.07 "HgN/A
4:20 PM57 °FFog.13 mph94%30.07 "Hg1 mi
3:50 PM57 °FPartly sunny.13 mph94%30.07 "HgN/A
3:20 PM57 °FLow clouds.12 mph94%30.07 "HgN/A
2:50 PM57 °FMore clouds than sun.14 mph94%30.07 "HgN/A
2:20 PM57 °FPartly sunny.17 mph94%30.07 "HgN/A
1:50 PM59 °FScattered clouds.15 mph94%30.04 "HgN/A
1:20 PM59 °FPassing clouds.18 mph94%30.04 "HgN/A
12:50 PM57 °FPassing clouds.16 mph100%30.04 "HgN/A
12:20 PM55 °FBroken clouds.18 mph100%30.04 "HgN/A
11:50 AM57 °FSprinkles. Fog.17 mph100%30.04 "Hg1 mi
11:20 AM57 °FLight rain. Fog.20 mph100%30.04 "Hg1 mi
10:50 AM57 °FFog.22 mph100%30.07 "Hg2 mi
10:20 AM57 °FLight rain. Mostly cloudy.22 mph100%30.07 "HgN/A
9:50 AM57 °FLight rain. Passing clouds.25 mph100%30.04 "Hg5 mi
9:20 AM57 °FLight rain. Partly sunny.28 mph100%30.07 "HgN/A
8:50 AM57 °FLight rain. Passing clouds.29 mph100%30.07 "HgN/A
8:20 AM57 °FLight rain. Partly sunny.29 mph100%30.07 "Hg5 mi
7:50 AM57 °FLight rain. Fog.23 mph100%30.07 "Hg2 mi
7:20 AM57 °FRain. Partly sunny.20 mph100%30.09 "Hg2 mi
6:50 AM57 °FRain. Passing clouds.17 mph100%30.09 "Hg3 mi
6:20 AM57 °FRain. Passing clouds.15 mph100%30.09 "Hg4 mi
5:50 AM57 °FRain showers. Low clouds.16 mph100%30.12 "Hg3 mi
5:20 AM57 °FSprinkles. Low clouds.14 mph100%30.12 "Hg2 mi
4:50 AM57 °FLight rain. Passing clouds.13 mph94%30.12 "HgN/A
4:20 AM57 °FPassing clouds.14 mph100%30.12 "HgN/A
3:50 AM55 °FPassing clouds.12 mph100%30.15 "HgN/A
3:20 AM55 °FLight rain. Passing clouds.12 mph100%30.15 "HgN/A
2:50 AM55 °FPassing clouds.N/A100%30.15 "Hg4 mi
2:20 AM55 °FFog.N/A100%30.15 "Hg1 mi
1:50 AM55 °FFog.13 mph100%30.15 "Hg1 mi
1:20 AM57 °FFog.12 mph100%30.18 "Hg1 mi
Weather by CustomWeather, © 2016

See weather overviewHow to use our weather pages